Вернуться в каталог

FENGYUN 1C DEB

АктивенSSO
NORAD 29918·DEBRIS·🇨🇳 China

Запущен May 10, 1999 с Taiyuan Satellite Launch Center

Loading…

Ближайшие Пролёты (ближайшие 24 часа)

TLE

СвежийSource: Space-Track

Эпоха: Sep 14, 2026, 04:53 UTC

1 29918U 99025HQ  26257.20385649  .00002365  00000-0  83715-3 0  9996
2 29918  98.8465 351.2542 0013559 222.1757 167.7043 14.35515268 17446

Отслеживайте FENGYUN 1C DEB в реальном времени с AllMySat

Download on the App Store